Retour au catalogue

STARLINK-34421

ActifCommunicationsVLEO
NORAD 64459·PAYLOAD·🇺🇸 United States

Lancé Jun 18, 2025 depuis Cape Canaveral Space Force Station

Loading…

Prochains Passages (prochaines 24 heures)

TLE

FraisSource: CelesTrak SupGP

Époque: Sep 14, 2026, 20:47 UTC

1 64459C 25130X   26257.86645833  .00023980  00000+0  70866-3 0  2572
2 64459  53.1578 285.6917 0001233  81.1061 334.5812 15.34371658    13

Suivez STARLINK-34421 en temps réel avec AllMySat

Download on the App Store